Flag for Honduras Weather past 2 weeks in Choloma, Honduras

Now
77 °F

Passing clouds.


Feels Like: 78 °F
Forecast: 71 / 80 °F
Wind: 5 mph from North

Location: La Mesa San Pedro Sula

Current Time: Mar 1, 2015 at 10:43:14 PM

Latest Report: Mar 1, 2015 at 10:00 PM


Visibility: N/A

Pressure: 30.09 "Hg

Humidity: 94%

Dew point: 75 °F

Location of CholomaLocation

Historic Weather in Choloma — Graph

°F

Choloma temperature yesterday

Maximum temperature yesterday: 90 °F (at 1:00 PM)
Minimum temperature yesterday: 73 °F (at 4:00 AM)
Average temperature yesterday: 80 °F

Past Weeks' High & Low Weather Summary

 TemperatureHumidityPressure
High93 °F (Feb 17, 2:00 PM)100% (Feb 14, 10:00 PM)30.18 "Hg (Feb 14, 10:00 PM)
Low63 °F (Feb 16, 3:00 AM)44% (Feb 26, 2:00 PM)29.74 "Hg (Feb 26, 3:00 PM)
Average76 °F85%29.99 "Hg
* Reported Feb 14 10:00 PM — Mar 1 10:00 PM, Choloma, Weather by CustomWeather, © 2015

Note: Actual official high and low records may vary slightly from our data, if they occured in-between our weather recording intervals... More about our weather records

Advertising

Choloma weather history for previous 24 hours

 ConditionsComfort  
Time TempWeatherWind HumidityBarometerVisibility
10:00 PM
Sun, Mar 1
77 °FPassing clouds.5 mph94%30.09 "HgN/A
9:00 PM77 °FPassing clouds.5 mph94%30.09 "HgN/A
8:00 PM79 °FPassing clouds.9 mph89%30.07 "HgN/A
7:00 PM79 °FPassing clouds.10 mph89%30.04 "HgN/A
5:00 PM82 °FScattered clouds.17 mph74%30.01 "HgN/A
4:00 PM84 °FScattered clouds.18 mph70%29.98 "HgN/A
3:00 PM86 °FScattered clouds.18 mph66%29.98 "HgN/A
2:00 PM88 °FPartly sunny.18 mph59%30.01 "HgN/A
1:00 PM88 °FPartly sunny.16 mph62%30.01 "HgN/A
12:00 PM88 °FPartly sunny.9 mph62%30.04 "HgN/A
11:00 AM86 °FPartly sunny.7 mph70%30.07 "HgN/A
10:00 AM82 °FScattered clouds.6 mph84%30.09 "HgN/A
9:00 AM81 °FScattered clouds.2 mph84%30.09 "HgN/A
8:00 AM77 °FScattered clouds.5 mph89%30.07 "HgN/A
7:00 AM73 °FPartly sunny.5 mph94%30.07 "HgN/A
6:00 AM73 °FPassing clouds.5 mph94%30.04 "HgN/A
5:00 AM73 °FPassing clouds.2 mph94%30.01 "HgN/A
3:00 AM75 °FPassing clouds.No wind94%30.01 "HgN/A
2:00 AM75 °FPassing clouds.2 mph94%30.01 "HgN/A
1:00 AM77 °FPassing clouds.3 mph94%30.01 "HgN/A
11:00 PM
Sat, Feb 28
77 °FPassing clouds.5 mph89%30.07 "HgN/A
10:00 PM77 °FPassing clouds.7 mph89%30.07 "HgN/A
Weather by CustomWeather, © 2015

See weather overviewHow to use our weather pages